Flag for Germany Weather past 2 weeks in Öhringen, Baden-Württemberg, Germany

Now
53 °F

Partly sunny.


Feels Like: 52 °F
Forecast: 36 / 60 °F
Wind: 5 mph from Northeast

Location: Oehringen

Current Time: Apr 18, 2015 at 5:19:15 PM

Latest Report: Apr 18, 2015 at 4:00 PM


Visibility: 44 mi

Pressure: 30.25 "Hg

Humidity: 38%

Dew point: 28 °F

Location of ÖhringenLocation

Historic Weather in Öhringen — Graph

°F

Öhringen temperature yesterday

Maximum temperature yesterday: 61 °F (at 12:00 AM)
Minimum temperature yesterday: 47 °F (at 11:00 PM)
Average temperature yesterday: 56 °F

Past Weeks' High & Low Weather Summary

 TemperatureHumidityPressure
High78 °F (Apr 15, 5:00 PM)94% (Apr 12, 8:00 AM)30.66 "Hg (Apr 12, 8:00 AM)
Low28 °F (Apr 7, 7:00 AM)19% (Apr 15, 7:00 PM)29.86 "Hg (Apr 16, 8:00 PM)
Average51 °F61%30.24 "Hg
* Reported Apr 3 4:00 PM — Apr 18 4:00 PM, Öhringen, Weather by CustomWeather, © 2015

Note: Actual official high and low records may vary slightly from our data, if they occured in-between our weather recording intervals... More about our weather records

Advertising

Öhringen weather history for previous 24 hours

 ConditionsComfort  
Time TempWeatherWind HumidityBarometerVisibility
4:00 PM
Sat, Apr 18
53 °FPartly sunny.5 mph38%30.25 "Hg43 mi
3:00 PM53 °FScattered clouds.6 mph39%30.26 "Hg37 mi
2:00 PM54 °FPassing clouds.3 mph40%30.26 "Hg25 mi
1:00 PM52 °FScattered clouds.6 mph42%30.27 "Hg31 mi
12:00 PM49 °FPassing clouds.6 mph44%30.27 "Hg43 mi
11:00 AM51 °FSunny.5 mph47%30.26 "Hg43 mi
10:00 AM47 °FSunny.6 mph54%30.25 "Hg43 mi
9:00 AM45 °FSunny.3 mph59%30.25 "Hg31 mi
8:00 AM40 °FSunny.1 mph70%30.25 "Hg17 mi
7:00 AM35 °FSunny.1 mph85%30.24 "Hg14 mi
6:00 AM37 °FClear.1 mph81%30.22 "Hg16 mi
5:00 AM39 °FPassing clouds.2 mph71%30.21 "Hg25 mi
4:00 AM40 °FClear.2 mph70%30.20 "Hg28 mi
3:00 AM42 °FOvercast.2 mph66%30.18 "Hg28 mi
2:00 AM44 °FOvercast.2 mph61%30.17 "Hg40 mi
1:00 AM45 °FOvercast.3 mph58%30.15 "Hg40 mi
12:00 AM46 °FOvercast.5 mph54%30.13 "Hg37 mi
11:00 PM
Fri, Apr 17
47 °FOvercast.6 mph52%30.11 "Hg31 mi
10:00 PM48 °FOvercast.8 mph52%30.08 "Hg40 mi
9:00 PM50 °FOvercast.6 mph53%30.04 "Hg31 mi
8:00 PM53 °FScattered clouds.2 mph59%29.99 "Hg19 mi
7:00 PM54 °FOvercast.2 mph58%29.97 "Hg22 mi
6:00 PM54 °FOvercast.3 mph69%29.96 "Hg16 mi
5:00 PM53 °FDrizzle. Overcast.3 mph72%29.96 "Hg12 mi
Weather by CustomWeather, © 2015

See weather overviewHow to use our weather pages